OPS 5058 (DMSP 5B F2)

Satellite information

Favourite Embed

Satellite Type and Status

PAYLOADIN ORBIT

Key statistics

Satellite OPS 5058 (DMSP 5B F2) at a glance.

Uptime

19569

Days in orbit

Revolutions

≈ 14.3

Per day

Orbit

SSO

Sun Synchronous Orbit

Inclination

99.1

Latest

Satellite identification and parameters

Extended collection of information and parameters for OPS 5058 (DMSP 5B F2).

Object identification

Identified? True

Debris? False

Object name: OPS 5058 (DMSP 5B F2)

International designator: 1972-018A

Object number (NORAD): 5903

Object ID (CCSDS): 5903

Country: UNITED STATES OF AMERICA (US)

Current information (Y/N): Y

RCS size: MEDIUM

Orbital parameters

Period: 101.027 minutes

Inclination: 99.1212 deg

SMA: 7185.407 km

Apoapsis: 844.221 km

Periapsis: 770.324 km

RAAN: 113.1618 deg

Eccentricy: 0.00514212

Argument of periapsis: 61.6794 deg

Mean anomaly: 298.9558 deg

Mean motion: 14.25363629 rev/day

Mean motion (dot): 0.00000339 rev/day2

B* drag term: 0.00016179059 1/REarth

Two-line elements (TLE)

Creation date: Oct. 21, 2025, 3:26 a.m.

Reference frame: TEME

Reference center: EARTH

Epoch: Oct. 20, 2025, 9:57 p.m. UTC

TLE line 0: 0 OPS 5058 (DMSP 5B F2)

TLE line 1: 1 05903U 72018A 25293.91474440 .00000339 00000-0 16179-3 0 9991

TLE line 2: 2 05903 99.1212 113.1618 0051421 61.6794 298.9558 14.25363629856129

Live tracking on map

Real-time ground track for satellite OPS 5058 (DMSP 5B F2).

In-orbit conjunctions

There are no conjunctions computed for OPS 5058 (DMSP 5B F2), at the moment. Check back to stay up to date, as we update our databases every day.

Go to all conjunctions

Associated space launch

Military meteorological satellite

OPS 5058 (DMSP 5B F2) was lifted into orbit during the mission ‘Thor Burner 2A | DMSP-5B F2’, on board a Thor Burner 2A space rocket.

The launch took place on March 24, 1972, 8:46 a.m. from Space Launch Complex 10W.

For more information about the launch, click the button.

Launch to space Thor Burner 2A | DMSP-5B F2
Thor Burner 2A | DMSP-5B F2

Agency: N/A

Status: Launch Successful

Launch date: March 24, 1972, 8:46 a.m. UTC

Rocket: Thor Burner 2A

Launch pad: Space Launch Complex 10W

Location: Vandenberg SFB, CA, USA

...

Latest news about this satellite

There are no fresh news available about this satellite. Check back as we update our databases every day.


Newsletter sign-up

Weekly statistics, charts and insights to help you stay on top of the space industry.